Rochelle, IL

7:11 AM CST on February 07, 2016 (GMT -0600)
Rochelle

Weather History for KRPJ - June, 2014

Change the Weather History Date:

Tuesday, June 3, 2014

  Actual Average (KRFD) Record (KRFD)
Temperature  
Mean Temperature 71 °F 66 °F  
Max Temperature 80 °F 78 °F 100 °F (1934)
Min Temperature 62 °F 54 °F 38 °F (1947)
Degree Days  
Heating Degree Days 0 2  
Month to date heating degree days 8  
Since 1 June heating degree days 8  
Since 1 July heating degree days 6546  
Cooling Degree Days 6 3  
Month to date cooling degree days 9  
Year to date cooling degree days 64  
Since 1 June cooling degree days 9  
Growing Degree Days 21 (Base 50)    
Moisture  
Dew Point 52 °F    
Average Humidity 53    
Maximum Humidity 88    
Minimum Humidity 28    
Precipitation  
Precipitation 0.00 in 0.16 in 2.37 in (2002)
Month to date precipitation 0.48  
Year to date precipitation 12.95  
Snow  
Snow 0.00 in 0.00 in 0.00 in ()
Month to date snowfall 0.0  
Since 1 June snowfall 0.0  
Since 1 July snowfall 36.7  
Snow Depth -    
Sea Level Pressure  
Sea Level Pressure 29.93 in    
Wind  
Wind Speed 9 mph (WNW)    
Max Wind Speed 16 mph    
Max Gust Speed 23 mph    
Visibility 10 miles    
Events      
T = Trace of Precipitation, MM = Missing Value Source: NWS Daily Summary

Daily Weather History Graph

Daily Weather History Graph

Search for Another Location

Airport or City:

Trip Planner

Search our weather history database for the weather conditions in past years. The results will help you decide how hot, cold, wet, or windy it might be!

Date:

Astronomy

Jun. 03, 2014 Rise Set
Actual Time 5:22 AM CDT 8:26 PM CDT
Civil Twilight 4:49 AM CDT 9:00 PM CDT
Nautical Twilight 4:06 AM CDT 9:43 PM CDT
Astronomical Twilight 3:15 AM CDT 10:34 PM CDT
Moon 10:49 AM CDT (6/3) No Moon Set
Length of Visible Light 16h 11m
Length of Day
15h 03m
Waxing Crescent, 30% of the Moon is Illuminated
Jun 3
Waxing Crescent
Jun 5
First Quarter
Jun 12
Full
Jun 19
Last Quarter
Jun 27
New

Hourly Weather History & Observations

Time (CDT) Temp. Dew Point Humidity Pressure Visibility Wind Dir Wind Speed Gust Speed Precip Events Conditions
12:15 AM 69.8 °F 62.8 °F 78% 29.87 in 10.0 mi WSW 10.4 mph - N/A   Scattered Clouds
12:35 AM 69.1 °F 63.0 °F 81% 29.87 in 10.0 mi WSW 10.4 mph - N/A   Clear
12:55 AM 67.8 °F 62.6 °F 83% 29.87 in 10.0 mi WSW 9.2 mph - N/A   Clear
1:15 AM 67.1 °F 62.6 °F 85% 29.87 in 10.0 mi WSW 9.2 mph - N/A   Scattered Clouds
1:35 AM 66.4 °F 62.6 °F 88% 29.87 in 10.0 mi WSW 8.1 mph - N/A   Scattered Clouds
1:55 AM 66.4 °F 62.6 °F 88% 29.88 in 10.0 mi WSW 9.2 mph - N/A   Scattered Clouds
2:15 AM 66.4 °F 62.6 °F 88% 29.88 in 10.0 mi West 9.2 mph - N/A   Scattered Clouds
2:35 AM 69.1 °F 59.9 °F 72% 29.88 in 10.0 mi West 11.5 mph - N/A   Scattered Clouds
2:55 AM 68.4 °F 59.5 °F 73% 29.88 in 10.0 mi West 10.4 mph - N/A   Clear
3:15 AM 66.9 °F 59.7 °F 78% 29.89 in 10.0 mi West 10.4 mph - N/A   Scattered Clouds
3:35 AM 66.4 °F 59.2 °F 78% 29.89 in 10.0 mi West 9.2 mph - N/A   Scattered Clouds
3:55 AM 66.2 °F 58.6 °F 77% 29.89 in 10.0 mi West 10.4 mph - N/A   Clear
4:15 AM 65.5 °F 58.1 °F 77% 29.90 in 10.0 mi West 11.5 mph - N/A   Clear
4:35 AM 64.6 °F 57.6 °F 78% 29.91 in 10.0 mi West 6.9 mph - N/A   Clear
4:55 AM 62.2 °F 57.9 °F 86% 29.91 in 10.0 mi WSW 9.2 mph - N/A   Clear
5:15 AM 63.1 °F 56.5 °F 79% 29.92 in 10.0 mi West 12.7 mph - N/A   Clear
5:35 AM 64.4 °F 55.6 °F 73% 29.92 in 10.0 mi West 10.4 mph - N/A   Clear
5:55 AM 63.0 °F 56.5 °F 79% 29.93 in 10.0 mi West 8.1 mph - N/A   Clear
6:15 AM 63.5 °F 56.8 °F 79% 29.94 in 10.0 mi West 9.2 mph - N/A   Clear
6:35 AM 64.4 °F 56.5 °F 75% 29.95 in 10.0 mi West 11.5 mph - N/A   Clear
6:55 AM 65.3 °F 56.1 °F 72% 29.95 in 10.0 mi West 11.5 mph - N/A   Clear
7:15 AM 66.2 °F 56.1 °F 70% 29.96 in 10.0 mi West 11.5 mph - N/A   Clear
7:35 AM 66.4 °F 55.0 °F 67% 29.96 in 10.0 mi WNW 12.7 mph - N/A   Clear
7:55 AM 66.6 °F 53.8 °F 63% 29.97 in 10.0 mi WNW 15.0 mph 19.6 mph N/A   Clear
8:15 AM 67.5 °F 53.1 °F 60% 29.97 in 10.0 mi WNW 16.1 mph 19.6 mph N/A   Clear
8:35 AM 68.2 °F 52.3 °F 57% 29.98 in 10.0 mi NW 12.7 mph - N/A   Clear
8:55 AM 68.7 °F 51.1 °F 53% 29.98 in 10.0 mi WNW 12.7 mph - N/A   Clear
9:15 AM 69.1 °F 50.0 °F 51% 29.98 in 10.0 mi WNW 13.8 mph 23.0 mph N/A   Clear
9:35 AM 70.3 °F 50.0 °F 48% 29.99 in 10.0 mi NW 15.0 mph 20.7 mph N/A   Clear
9:55 AM 70.9 °F 48.9 °F 46% 29.99 in 10.0 mi NW 11.5 mph 19.6 mph N/A   Clear
10:15 AM 71.6 °F 48.9 °F 45% 29.99 in 10.0 mi NW 11.5 mph - N/A   Clear
10:35 AM 72.5 °F 48.2 °F 42% 30.00 in 10.0 mi NW 9.2 mph 17.3 mph N/A   Clear
10:55 AM 73.0 °F 48.2 °F 41% 30.00 in 10.0 mi NW 11.5 mph 18.4 mph N/A   Clear
11:15 AM 73.8 °F 47.5 °F 39% 30.00 in 10.0 mi NNW 11.5 mph - N/A   Clear
11:35 AM 73.6 °F 48.0 °F 40% 30.00 in 10.0 mi NW 9.2 mph - N/A   Clear
11:55 AM 73.9 °F 47.8 °F 40% 30.00 in 10.0 mi NW 11.5 mph - N/A   Clear
12:15 PM 75.0 °F 48.4 °F 39% 30.00 in 10.0 mi WNW 9.2 mph - N/A   Clear
12:35 PM 75.2 °F 47.8 °F 38% 30.00 in 10.0 mi WNW 9.2 mph - N/A   Clear
12:55 PM 75.9 °F 47.7 °F 37% 29.99 in 10.0 mi NW 10.4 mph - N/A   Clear
1:15 PM 76.5 °F 46.6 °F 35% 29.98 in 10.0 mi West 8.1 mph - N/A   Clear
1:35 PM 77.4 °F 45.9 °F 33% 29.98 in 10.0 mi NW 8.1 mph - N/A   Clear
1:55 PM 77.4 °F 46.6 °F 34% 29.97 in 10.0 mi West 5.8 mph - N/A   Clear
2:15 PM 79.5 °F 46.2 °F 31% 29.97 in 10.0 mi WNW 6.9 mph - N/A   Clear
2:35 PM 79.2 °F 46.8 °F 32% 29.96 in 5.0 mi WSW 11.5 mph - N/A   Haze
2:55 PM 79.5 °F 46.6 °F 31% 29.96 in 5.0 mi Calm Calm - N/A   Haze
3:15 PM 80.6 °F 47.1 °F 31% 29.95 in 10.0 mi West 9.2 mph - N/A   Clear
3:35 PM 79.3 °F 45.9 °F 31% 29.95 in 10.0 mi West 11.5 mph 18.4 mph N/A   Clear
3:55 PM 80.1 °F 46.2 °F 30% 29.95 in 10.0 mi West 11.5 mph 17.3 mph N/A   Clear
4:15 PM 79.9 °F 46.9 °F 31% 29.95 in 10.0 mi West 9.2 mph - N/A   Clear
4:35 PM 79.7 °F 46.0 °F 30% 29.93 in 10.0 mi West 11.5 mph - N/A   Clear
4:55 PM 79.5 °F 45.9 °F 30% 29.92 in 10.0 mi West 11.5 mph - N/A   Clear
5:15 PM 80.6 °F 44.8 °F 28% 29.92 in 10.0 mi West 9.2 mph 18.4 mph N/A   Clear
5:35 PM 80.1 °F 45.3 °F 29% 29.91 in 10.0 mi West 5.8 mph - N/A   Clear
5:55 PM 79.7 °F 46.0 °F 30% 29.92 in 10.0 mi WNW 9.2 mph - N/A   Clear
6:15 PM 79.3 °F 45.7 °F 30% 29.91 in 10.0 mi WNW 11.5 mph - N/A   Clear
6:35 PM 78.8 °F 45.3 °F 31% 29.92 in 10.0 mi WNW 10.4 mph - N/A   Clear
6:55 PM 77.5 °F 45.9 °F 33% 29.92 in 10.0 mi WNW 8.1 mph - N/A   Clear
7:15 PM 75.9 °F 46.4 °F 35% 29.91 in 10.0 mi WNW 8.1 mph - N/A   Clear
7:35 PM 75.2 °F 47.7 °F 38% 29.92 in 10.0 mi NW 5.8 mph - N/A   Clear
7:55 PM 73.6 °F 48.7 °F 41% 29.91 in 10.0 mi WNW 4.6 mph - N/A   Clear
8:15 PM 72.5 °F 48.6 °F 43% 29.89 in 10.0 mi Calm Calm - N/A   Clear
8:35 PM 71.1 °F 49.1 °F 46% 29.92 in 10.0 mi Calm Calm - N/A   Clear
8:55 PM 70.7 °F 49.8 °F 48% 29.92 in 10.0 mi NNW 4.6 mph - N/A   Clear
9:15 PM 69.1 °F 50.9 °F 52% 29.92 in 10.0 mi Calm Calm - N/A   Clear
9:35 PM 69.1 °F 52.0 °F 54% 29.92 in 10.0 mi North 3.5 mph - N/A   Clear
9:55 PM 68.2 °F 51.3 °F 55% 29.90 in 10.0 mi Calm Calm - N/A   Clear
10:15 PM 67.3 °F 52.7 °F 59% 29.90 in 10.0 mi ENE 3.5 mph - N/A   Clear
10:35 PM 69.4 °F 51.4 °F 53% 29.90 in 10.0 mi Calm Calm - N/A   Clear
10:55 PM 69.1 °F 52.5 °F 55% 29.90 in 10.0 mi NE 5.8 mph - N/A   Clear
11:15 PM 70.2 °F 51.1 °F 51% 29.90 in 10.0 mi East 5.8 mph - N/A   Clear
11:35 PM 70.3 °F 51.1 °F 50% 29.91 in 10.0 mi East 6.9 mph - N/A   Scattered Clouds
11:55 PM 68.9 °F 52.5 °F 56% 29.91 in 10.0 mi East 4.6 mph - N/A   Light Drizzle